| time (UTC) | temp C | wind direction | speed KPH | gust KPH | rain 1hr cm | rain 24hr cm | rain mn cm | humidity % | barometer mb |
| 20260510204553 | 23 | 103 | 6.4 | 16.1 | 0.00 | 0.05 | 0.00 | 84 | 1016.3 |
| 20260510203051 | 23 | 99 | 3.2 | 12.9 | 0.00 | 0.05 | 0.00 | 84 | 1016.3 |
| 20260510201552 | 23 | 107 | 8.0 | 17.7 | 0.00 | 0.05 | 0.00 | 82 | 1016.2 |
| 20260510200051 | 24 | 0 | 6.4 | 14.5 | 0.00 | 0.05 | 0.00 | 83 | 1016.3 |
| 20260510194551 | 24 | 130 | 6.4 | 14.5 | 0.00 | 0.05 | 0.00 | 82 | 1016.3 |
| 20260510193105 | 23 | 115 | 4.8 | 17.7 | 0.00 | 0.05 | 0.00 | 81 | 1016.4 |
| 20260510191558 | 24 | 102 | 6.4 | 16.1 | 0.00 | 0.05 | 0.00 | 78 | 1016.5 |
| 20260510190055 | 24 | 53 | 4.8 | 19.3 | 0.00 | 0.05 | 0.00 | 78 | 1016.7 |
| 20260510184547 | 24 | 96 | 8.0 | 16.1 | 0.00 | 0.05 | 0.00 | 79 | 1016.8 |
| 20260510183054 | 23 | 81 | 8.0 | 22.5 | 0.00 | 0.05 | 0.00 | 81 | 1016.9 |
| 20260510181549 | 23 | 118 | 8.0 | 17.7 | 0.00 | 0.05 | 0.00 | 81 | 1017.1 |
| 20260510180058 | 24 | 95 | 4.8 | 19.3 | 0.00 | 0.05 | 0.00 | 82 | 1017.2 |
| 20260510174547 | 23 | 118 | 6.4 | 19.3 | 0.00 | 0.05 | 0.00 | 83 | 1017.4 |
| 20260510173049 | 23 | 86 | 1.6 | 17.7 | 0.00 | 0.05 | 0.00 | 84 | 1017.3 |
| 20260510171551 | 24 | 121 | 6.4 | 12.9 | 0.00 | 0.05 | 0.00 | 81 | 1017.4 |
| 20260510170059 | 23 | 74 | 8.0 | 16.1 | 0.00 | 0.05 | 0.00 | 82 | 1017.4 |
| 20260510164556 | 23 | 97 | 9.7 | 17.7 | 0.00 | 0.20 | 0.00 | 82 | 1017.3 |
| 20260510163048 | 24 | 98 | 3.2 | 19.3 | 0.00 | 0.20 | 0.00 | 83 | 1017.3 |
| 20260510161550 | 23 | 41 | 1.6 | 4.8 | 0.00 | 0.20 | 0.00 | 87 | 1017.3 |
| 20260510160100 | 23 | 352 | 3.2 | 8.0 | 0.00 | 0.20 | 0.00 | 87 | 1017.3 |
| 20260510154603 | 22 | 15 | 4.8 | 8.0 | 0.00 | 0.61 | 0.00 | 89 | 1017.3 |
| 20260510153051 | 22 | 355 | 6.4 | 12.9 | 0.00 | 0.61 | 0.00 | 90 | 1017.4 |
| 20260510151550 | 22 | 360 | 8.0 | 12.9 | 0.00 | 0.61 | 0.00 | 91 | 1017.4 |
| 20260510150052 | 22 | 339 | 6.4 | 12.9 | 0.00 | 0.61 | 0.00 | 91 | 1017.2 |
| 20260510144545 | 21 | 351 | 6.4 | 9.7 | 0.00 | 0.61 | 0.00 | 92 | 1017.2 |
| 20260510143051 | 21 | 11 | 6.4 | 9.7 | 0.00 | 0.61 | 0.00 | 93 | 1017.3 |
| 20260510141548 | 21 | 348 | 6.4 | 9.7 | 0.00 | 0.61 | 0.00 | 94 | 1017.4 |
| 20260510140052 | 21 | 5 | 8.0 | 12.9 | 0.00 | 0.61 | 0.00 | 94 | 1017.3 |
| 20260510134552 | 21 | 360 | 6.4 | 9.7 | 0.00 | 0.61 | 0.00 | 95 | 1017.2 |
| 20260510133057 | 20 | 334 | 8.0 | 12.9 | 0.00 | 0.61 | 0.00 | 95 | 1017.0 |
| 20260510131550 | 20 | 355 | 6.4 | 8.0 | 0.00 | 0.61 | 0.00 | 95 | 1017.1 |
| 20260510130050 | 20 | 9 | 4.8 | 8.0 | 0.00 | 0.61 | 0.00 | 96 | 1016.8 |
| 20260510124607 | 20 | 34 | 6.4 | 9.7 | 0.00 | 0.61 | 0.00 | 95 | 1016.6 |
| 20260510123049 | 20 | 40 | 6.4 | 12.9 | 0.00 | 0.61 | 0.00 | 95 | 1016.3 |
| 20260510121547 | 20 | 26 | 6.4 | 11.3 | 0.00 | 0.61 | 0.00 | 95 | 1016.2 |
| 20260510120051 | 20 | 50 | 6.4 | 12.9 | 0.00 | 0.61 | 0.00 | 95 | 1016.0 |
| 20260510114547 | 20 | 19 | 8.0 | 12.9 | 0.00 | 0.61 | 0.00 | 95 | 1015.8 |
| 20260510113059 | 20 | 13 | 8.0 | 12.9 | 0.00 | 0.61 | 0.00 | 95 | 1015.6 |
| 20260510111604 | 20 | 23 | 6.4 | 11.3 | 0.00 | 0.61 | 0.00 | 95 | 1015.4 |
| 20260510110052 | 20 | 18 | 8.0 | 11.3 | 0.00 | 0.61 | 0.00 | 95 | 1015.2 |
| 20260510104603 | 20 | 51 | 3.2 | 6.4 | 0.00 | 0.61 | 0.00 | 95 | 1015.0 |
| 20260510103049 | 20 | 76 | 1.6 | 4.8 | 0.00 | 0.61 | 0.00 | 95 | 1014.6 |
| 20260510101551 | 20 | 0 | 0.0 | 1.6 | 0.00 | 0.61 | 0.00 | 95 | 1014.6 |
| 20260510100045 | 20 | 0 | 0.0 | 4.8 | 0.00 | 0.61 | 0.00 | 95 | 1014.7 |
| 20260510094548 | 20 | 97 | 0.0 | 0.0 | 0.00 | 0.61 | 0.00 | 95 | 1014.5 |
| 20260510093045 | 21 | 0 | 0.0 | 8.0 | 0.00 | 0.61 | 0.00 | 95 | 1014.5 |
| 20260510091554 | 21 | 66 | 4.8 | 11.3 | 0.00 | 0.61 | 0.00 | 95 | 1013.9 |
| 20260510090100 | 21 | 338 | 6.4 | 12.9 | 0.00 | 0.61 | 0.00 | 95 | 1013.9 |
| 20260510084556 | 21 | 19 | 6.4 | 11.3 | 0.00 | 0.66 | 0.00 | 95 | 1013.6 |
| 20260510083051 | 21 | 66 | 4.8 | 9.7 | 0.00 | 0.66 | 0.00 | 95 | 1013.4 |
| 20260510081547 | 20 | 95 | 6.4 | 14.5 | 0.00 | 0.66 | 0.00 | 95 | 1013.1 |
| 20260510080056 | 20 | 99 | 4.8 | 12.9 | 0.00 | 0.66 | 0.00 | 95 | 1012.9 |
| 20260510074550 | 20 | 75 | 6.4 | 12.9 | 0.00 | 0.76 | 0.00 | 95 | 1012.8 |
| 20260510073051 | 21 | 65 | 6.4 | 9.7 | 0.00 | 0.76 | 0.00 | 95 | 1013.2 |
| 20260510071548 | 21 | 48 | 6.4 | 12.9 | 0.00 | 0.76 | 0.00 | 95 | 1013.3 |
| 20260510070055 | 21 | 38 | 8.0 | 12.9 | 0.00 | 0.76 | 0.00 | 95 | 1013.3 |
| 20260510064605 | 21 | 39 | 6.4 | 9.7 | 0.00 | 0.81 | 0.00 | 95 | 1013.4 |
| 20260510063047 | 21 | 26 | 6.4 | 11.3 | 0.00 | 0.81 | 0.00 | 95 | 1013.3 |
| 20260510061553 | 21 | 355 | 4.8 | 8.0 | 0.00 | 0.81 | 0.00 | 95 | 1013.5 |
| 20260510060052 | 21 | 321 | 6.4 | 11.3 | 0.00 | 0.81 | 0.00 | 94 | 1013.8 |
| 20260510054547 | 21 | 286 | 8.0 | 12.9 | 0.00 | 0.81 | 0.00 | 94 | 1014.0 |
| 20260510053051 | 21 | 279 | 11.3 | 14.5 | 0.00 | 0.81 | 0.00 | 94 | 1014.1 |
| 20260510051601 | 21 | 342 | 4.8 | 8.0 | 0.00 | 0.81 | 0.00 | 94 | 1013.6 |
| 20260510050058 | 21 | 80 | 3.2 | 11.3 | 0.03 | 0.81 | 0.00 | 94 | 1013.3 |
| 20260510044550 | 21 | 0 | 0.0 | 0.0 | 0.03 | 0.84 | 0.81 | 94 | 1013.8 |
| 20260510043051 | 21 | 0 | 0.0 | 0.0 | 0.03 | 0.84 | 0.81 | 93 | 1014.1 |
| 20260510041604 | 21 | 0 | 0.0 | 1.6 | 0.03 | 0.84 | 0.81 | 93 | 1014.2 |
| 20260510040056 | 21 | 0 | 0.0 | 1.6 | 0.00 | 0.81 | 0.79 | 93 | 1014.3 |
| 20260510034551 | 21 | 0 | 0.0 | 3.2 | 0.00 | 0.81 | 0.79 | 92 | 1014.7 |
| 20260510033049 | 21 | 0 | 0.0 | 0.0 | 0.00 | 0.81 | 0.79 | 93 | 1014.4 |
| 20260510031557 | 21 | 0 | 0.0 | 1.6 | 0.00 | 0.81 | 0.79 | 92 | 1014.2 |
| 20260510024552 | 21 | 0 | 0.0 | 3.2 | 0.00 | 0.84 | 0.79 | 93 | 1013.8 |
| 20260510023045 | 21 | 0 | 0.0 | 6.4 | 0.00 | 0.84 | 0.79 | 93 | 1013.5 |
| 20260510021548 | 21 | 0 | 1.6 | 8.0 | 0.00 | 0.84 | 0.79 | 93 | 1013.4 |
| 20260510020052 | 21 | 106 | 4.8 | 11.3 | 0.00 | 0.84 | 0.79 | 92 | 1013.5 |
| 20260510014549 | 21 | 0 | 0.0 | 1.6 | 0.00 | 0.84 | 0.79 | 92 | 1014.0 |
| 20260510013053 | 21 | 0 | 0.0 | 3.2 | 0.00 | 0.84 | 0.79 | 91 | 1014.0 |
| 20260510011552 | 21 | 0 | 0.0 | 3.2 | 0.03 | 0.84 | 0.79 | 90 | 1014.4 |
| 20260510010049 | 21 | 130 | 1.6 | 20.9 | 0.03 | 0.84 | 0.79 | 90 | 1014.1 |
| 20260510004554 | 21 | 123 | 6.4 | 14.5 | 0.03 | 0.94 | 0.79 | 91 | 1013.1 |
| 20260510003058 | 21 | 119 | 6.4 | 17.7 | 0.03 | 0.94 | 0.79 | 91 | 1012.7 |
| 20260510001549 | 21 | 108 | 3.2 | 11.3 | 0.00 | 0.91 | 0.76 | 92 | 1012.7 |
| 20260510000057 | 21 | 106 | 1.6 | 6.4 | 0.00 | 0.91 | 0.76 | 92 | 1012.7 |
| 20260509234603 | 21 | 0 | 1.6 | 6.4 | 0.00 | 0.97 | 0.76 | 92 | 1013.0 |
| 20260509233054 | 21 | 0 | 0.0 | 3.2 | 0.00 | 0.97 | 0.76 | 91 | 1013.2 |
| 20260509231604 | 21 | 0 | 0.0 | 3.2 | 0.00 | 0.97 | 0.76 | 91 | 1013.2 |
| 20260509230052 | 21 | 114 | 1.6 | 4.8 | 0.00 | 0.97 | 0.76 | 91 | 1013.1 |
| 20260509224546 | 21 | 0 | 0.0 | 6.4 | 0.00 | 0.97 | 0.76 | 90 | 1012.9 |
| 20260509223049 | 21 | 0 | 0.0 | 9.7 | 0.00 | 0.97 | 0.76 | 90 | 1012.7 |
| 20260509221548 | 21 | 119 | 4.8 | 12.9 | 0.00 | 0.97 | 0.76 | 90 | 1012.9 |
| 20260509220052 | 21 | 108 | 1.6 | 6.4 | 0.00 | 0.97 | 0.76 | 90 | 1012.6 |
| 20260509214545 | 21 | 111 | 1.6 | 4.8 | 0.00 | 0.97 | 0.76 | 89 | 1012.4 |
| 20260509213049 | 21 | 360 | 3.2 | 6.4 | 0.00 | 0.97 | 0.76 | 88 | 1012.9 |
| 20260509211551 | 21 | 249 | 0.0 | 9.7 | 0.00 | 0.97 | 0.76 | 88 | 1012.5 |
| 20260509210058 | 21 | 116 | 3.2 | 12.9 | 0.00 | 0.97 | 0.76 | 87 | 1012.3 |